Coldwater, MI

5:36 AM EDT on August 24, 2016 (GMT -0400)
Branch County Memorial

Weather History for KOEB - October, 2011

Change the Weather History Date:

Thursday, October 6, 2011

  Actual Average (KJYM) Record (KJYM)
Temperature  
Mean Temperature 61 °F -  
Max Temperature 78 °F 64 °F 88 °F (1963)
Min Temperature 44 °F 41 °F 25 °F (1952)
Degree Days  
Heating Degree Days 4    
Growing Degree Days 11 (Base 50)    
Moisture  
Dew Point 47 °F    
Average Humidity 62    
Maximum Humidity 100    
Minimum Humidity 30    
Precipitation  
Precipitation 0.00 in - - ()
Sea Level Pressure  
Sea Level Pressure 30.28 in    
Wind  
Wind Speed 3 mph (SSE)    
Max Wind Speed 6 mph    
Max Gust Speed -    
Visibility 10 miles    
Events      
Averages and records for this station are not official NWS values.
T = Trace of Precipitation, MM = Missing Value Source: NWS Daily Summary

Daily Weather History Graph

Daily Weather History Graph

Search for Another Location

Airport or City:

Trip Planner

Search our weather history database for the weather conditions in past years. The results will help you decide how hot, cold, wet, or windy it might be!

Date:

Astronomy

Oct. 06, 2011 Rise Set
Actual Time 7:42 AM EDT 7:13 PM EDT
Civil Twilight 7:14 AM EDT 7:41 PM EDT
Nautical Twilight 6:42 AM EDT 8:13 PM EDT
Astronomical Twilight 6:09 AM EDT 8:46 PM EDT
Moon 4:30 PM EDT (10/6) 2:25 AM EDT (10/6)
Length of Visible Light 12h 27m
Length of Day
11h 31m
Waxing Gibbous, 75% of the Moon is Illuminated
Oct 6
Waxing Gibbous
Oct 11
Full
Oct 19
Last Quarter
Oct 26
New
Nov 2
First Quarter

Hourly Weather History & Observations

Time (EDT) Temp. Dew Point Humidity Pressure Visibility Wind Dir Wind Speed Gust Speed Precip Events Conditions
12:14 AM 53.6 °F 46.4 °F 77% 30.26 in 10.0 mi SE 4.6 mph - N/A   Clear
12:35 AM 53.6 °F 46.4 °F 77% 30.26 in 10.0 mi SE 4.6 mph - N/A   Clear
12:54 AM 53.6 °F 46.4 °F 77% 30.27 in 10.0 mi ESE 4.6 mph - N/A   Clear
1:15 AM 53.6 °F 46.4 °F 77% 30.27 in 10.0 mi SE 3.5 mph - N/A   Clear
1:35 AM 53.6 °F 44.6 °F 72% 30.27 in 10.0 mi ESE 4.6 mph - N/A   Clear
2:15 AM 53.6 °F 44.6 °F 72% 30.27 in 10.0 mi SE 5.8 mph - N/A   Clear
2:34 AM 51.8 °F 44.6 °F 76% 30.27 in 10.0 mi SE 5.8 mph - N/A   Clear
2:55 AM 53.6 °F 44.6 °F 72% 30.27 in 10.0 mi SE 5.8 mph - N/A   Clear
3:15 AM 51.8 °F 44.6 °F 76% 30.27 in 10.0 mi SSE 5.8 mph - N/A   Clear
3:34 AM 53.6 °F 44.6 °F 72% 30.27 in 10.0 mi SE 5.8 mph - N/A   Clear
3:55 AM 50.0 °F 44.6 °F 82% 30.27 in 10.0 mi SE 3.5 mph - N/A   Clear
4:15 AM 50.0 °F 44.6 °F 82% 30.27 in 10.0 mi Calm Calm - N/A   Clear
4:34 AM 48.2 °F 44.6 °F 87% 30.27 in 10.0 mi Calm Calm - N/A   Clear
4:55 AM 46.4 °F 44.6 °F 93% 30.27 in 10.0 mi Calm Calm - N/A   Clear
5:15 AM 50.0 °F 44.6 °F 82% 30.28 in 10.0 mi Calm Calm - N/A   Clear
5:34 AM 48.2 °F 44.6 °F 87% 30.28 in 10.0 mi Calm Calm - N/A   Clear
5:55 AM 46.4 °F 44.6 °F 93% 30.28 in 10.0 mi Calm Calm - N/A   Clear
6:15 AM 46.4 °F 42.8 °F 87% 30.28 in 10.0 mi Calm Calm - N/A   Clear
6:34 AM 48.2 °F 44.6 °F 87% 30.28 in 10.0 mi Calm Calm - N/A   Clear
6:55 AM 46.4 °F 42.8 °F 87% 30.28 in 10.0 mi Calm Calm - N/A   Clear
7:14 AM 46.4 °F 44.6 °F 93% 30.29 in 7.0 mi Calm Calm - N/A   Clear
7:34 AM 46.4 °F 44.6 °F 93% 30.29 in 7.0 mi Calm Calm - N/A   Clear
7:55 AM 44.6 °F 44.6 °F 100% 30.29 in 5.0 mi Calm Calm - N/A   Clear
8:14 AM 46.4 °F 44.6 °F 93% 30.30 in 7.0 mi Calm Calm - N/A   Clear
8:35 AM 50.0 °F 46.4 °F 87% 30.30 in 7.0 mi Calm Calm - N/A   Clear
8:55 AM 51.8 °F 46.4 °F 82% 30.31 in 7.0 mi Calm Calm - N/A   Clear
9:15 AM 53.6 °F 48.2 °F 82% 30.31 in 7.0 mi Calm Calm - N/A   Clear
9:54 AM 59.0 °F 50.0 °F 72% 30.32 in 10.0 mi SSE 3.5 mph - N/A   Clear
10:15 AM 62.6 °F 50.0 °F 63% 30.32 in 10.0 mi Calm Calm - N/A   Clear
10:35 AM 64.4 °F 50.0 °F 59% 30.32 in 10.0 mi South 3.5 mph - N/A   Clear
10:54 AM 64.4 °F 50.0 °F 59% 30.33 in 10.0 mi SE 3.5 mph - N/A   Clear
11:35 AM 69.8 °F 50.0 °F 49% 30.33 in 10.0 mi South 3.5 mph - N/A   Clear
11:54 AM 69.8 °F 51.8 °F 53% 30.32 in 10.0 mi SE 4.6 mph - N/A   Clear
12:15 PM 71.6 °F 51.8 °F 50% 30.32 in 10.0 mi Calm Calm - N/A   Clear
12:35 PM 73.4 °F 50.0 °F 44% 30.31 in 10.0 mi Calm Calm - N/A   Clear
12:54 PM 73.4 °F 50.0 °F 44% 30.31 in 10.0 mi Calm Calm - N/A   Clear
1:15 PM 75.2 °F 50.0 °F 41% 30.31 in 10.0 mi Calm Calm - N/A   Clear
1:35 PM 77.0 °F 48.2 °F 36% 30.30 in 10.0 mi Calm Calm - N/A   Clear
1:54 PM 77.0 °F 48.2 °F 36% 30.29 in 10.0 mi Calm Calm - N/A   Clear
2:15 PM 77.0 °F 46.4 °F 34% 30.28 in 10.0 mi Calm Calm - N/A   Clear
2:35 PM 77.0 °F 44.6 °F 32% 30.28 in 10.0 mi Calm Calm - N/A   Clear
2:54 PM 78.8 °F 46.4 °F 32% 30.28 in 10.0 mi SSE 3.5 mph - N/A   Clear
3:15 PM 78.8 °F 44.6 °F 30% 30.27 in 10.0 mi Calm Calm - N/A   Clear
3:34 PM 78.8 °F 44.6 °F 30% 30.27 in 10.0 mi Calm Calm - N/A   Clear
3:54 PM 78.8 °F 44.6 °F 30% 30.27 in 10.0 mi Calm Calm - N/A   Clear
4:15 PM 78.8 °F 44.6 °F 30% 30.27 in 10.0 mi SE 3.5 mph - N/A   Clear
4:34 PM 78.8 °F 44.6 °F 30% 30.27 in 10.0 mi South 4.6 mph - N/A   Clear
4:55 PM 78.8 °F 44.6 °F 30% 30.27 in 10.0 mi SSW 3.5 mph - N/A   Clear
5:15 PM 77.0 °F 46.4 °F 34% 30.27 in 10.0 mi South 4.6 mph - N/A   Clear
5:34 PM 77.0 °F 46.4 °F 34% 30.27 in 10.0 mi South 3.5 mph - N/A   Clear
5:55 PM 77.0 °F 46.4 °F 34% 30.27 in 10.0 mi Calm Calm - N/A   Clear
6:15 PM 75.2 °F 46.4 °F 36% 30.27 in 10.0 mi Calm Calm - N/A   Clear
6:34 PM 73.4 °F 48.2 °F 41% 30.27 in 10.0 mi SSE 3.5 mph - N/A   Clear
6:55 PM 73.4 °F 48.2 °F 41% 30.27 in 10.0 mi SSE 3.5 mph - N/A   Clear
7:15 PM 69.8 °F 51.8 °F 53% 30.27 in 10.0 mi SE 3.5 mph - N/A   Clear
7:34 PM 68.0 °F 51.8 °F 56% 30.28 in 10.0 mi Calm Calm - N/A   Clear
7:55 PM 64.4 °F 51.8 °F 64% 30.28 in 10.0 mi SSE 3.5 mph - N/A   Clear
8:14 PM 62.6 °F 51.8 °F 68% 30.28 in 10.0 mi SE 3.5 mph - N/A   Clear
8:35 PM 62.6 °F 51.8 °F 68% 30.28 in 10.0 mi SSE 3.5 mph - N/A   Clear
8:55 PM 60.8 °F 51.8 °F 72% 30.29 in 10.0 mi SSE 3.5 mph - N/A   Clear
9:14 PM 60.8 °F 51.8 °F 72% 30.29 in 10.0 mi SSE 3.5 mph - N/A   Clear
9:35 PM 60.8 °F 51.8 °F 72% 30.29 in 10.0 mi SSE 3.5 mph - N/A   Clear
9:54 PM 57.2 °F 51.8 °F 82% 30.29 in 10.0 mi SSE 3.5 mph - N/A   Clear
10:15 PM 59.0 °F 50.0 °F 72% 30.30 in 10.0 mi SSE 3.5 mph - N/A   Clear
10:35 PM 57.2 °F 50.0 °F 77% 30.30 in 10.0 mi SSE 3.5 mph - N/A   Clear
10:54 PM 55.4 °F 50.0 °F 82% 30.30 in 10.0 mi SSE 3.5 mph - N/A   Clear
11:15 PM 55.4 °F 50.0 °F 82% 30.30 in 10.0 mi SSE 3.5 mph - N/A   Clear
11:35 PM 59.0 °F 50.0 °F 72% 30.30 in 10.0 mi SSE 4.6 mph - N/A   Clear
11:54 PM 55.4 °F 50.0 °F 82% 30.31 in 10.0 mi SE 5.8 mph - N/A   Clear